Location: Shenandoah County Park
(38.9356°N, 78.4524°W)
Time: 06:44:00
(UTC-05:00)

N. Korean satellite - Pass Details

Date: 09 December 2021
Orbit: 446 x 491 km, 97.3° (Epoch: 19 January)

Event Time Altitude Azimuth Distance (km) Brightness Sun altitude
Rises 17:20:13 0° 193° (SSW) 2,515 10.8 -5.8°
Reaches altitude 10° 17:22:32 10° 207° (SSW) 1,633 10.1 -6.2°
Maximum altitude 17:25:27 24° 264° (W) 1,001 9.2 -6.7°
Drops below altitude 10° 17:28:21 10° 320° (NW) 1,621 9.4 -7.2°
Sets 17:30:39 0° 335° (NNW) 2,492 10.2 -7.7°
